Tracking 29606 objects as of 18-Sep-2024
HD Live streaming from Space Station
objects crossing your sky now

NOAA 17 DEB

Track NOAA 17 DEB now!
10-day predictions


NORAD ID: 48729
Int'l Code: 2002-032BP
Perigee: 733.0 km
Apogee: 760.8 km
Inclination: 98.4 °
Period: 99.6 minutes
Semi major axis: 7117 km
RCS: Unknown
Launch date: June 24, 2002
Source: United States (US)
Launch site: AIR FORCE WESTERN TEST RANGE (AFWTR)

Note: This is SATELLITE DEBRIS
Your satellite tracking list
Your tracking list is empty




NASA's NSSDC Master Catalog

Two Line Element Set (TLE):
1 48729U 02032BN  24261.03599358  .00024270  00000-0  68292-2 0  9998
2 48729  98.4495 191.2462 0019529  71.7876 288.5439 14.45692253182762
Source of the keplerian elements: AFSPC